JBU224 KLAX-KJFK

Flight info

Callsign JBU224
Flight time N/A
Altitude 33000
Route DOTSS2 CLEEE EED J236 TBC KD39Q ALS/N0450F350 GOSIP RYLIE IBQUP HURDO STJ KK63I FATOX KG66O WEEVR WWSHR Q29 JHW Q476 WLKES
Aircraft A321/M-SDE3FGHIRWY/LB1

Departure

Time 2026-05-05 09:04
Airport Los Angeles International Airport (KLAX)

Arrival

Time N/A
Airport John F. Kennedy International Airport (KJFK)
Time Latitude Longitude Altitude Speed Heading
2026-05-05 08:13 33.94685 -118.40186 95 ft 0 kts 84°
2026-05-05 08:48 33.94684 -118.40196 96 ft 4 kts 80°
2026-05-05 08:48 33.94676 -118.40225 94 ft 4 kts 53°
2026-05-05 08:49 33.94658 -118.40244 96 ft 4 kts
2026-05-05 08:49 33.94648 -118.40245 94 ft 1 kts 352°
2026-05-05 08:51 33.94659 -118.40247 95 ft 4 kts 352°
2026-05-05 08:51 33.94705 -118.40254 96 ft 9 kts 353°
2026-05-05 08:51 33.94780 -118.40265 95 ft 12 kts 346°
2026-05-05 08:52 33.94807 -118.40340 97 ft 11 kts 265°
2026-05-05 08:52 33.94797 -118.40428 97 ft 11 kts 263°
2026-05-05 08:52 33.94788 -118.40523 98 ft 12 kts 264°
2026-05-05 08:52 33.94779 -118.40623 96 ft 12 kts 263°
2026-05-05 08:53 33.94768 -118.40729 96 ft 13 kts 264°
2026-05-05 08:53 33.94757 -118.40841 98 ft 14 kts 262°
2026-05-05 08:53 33.94744 -118.40956 99 ft 14 kts 262°
2026-05-05 08:53 33.94732 -118.41075 97 ft 15 kts 264°
2026-05-05 08:54 33.94713 -118.41194 97 ft 11 kts 250°
2026-05-05 08:54 33.94673 -118.41275 98 ft 11 kts 206°
2026-05-05 08:54 33.94594 -118.41269 96 ft 12 kts 173°
2026-05-05 08:54 33.94506 -118.41257 96 ft 13 kts 173°
2026-05-05 08:55 33.94411 -118.41244 95 ft 14 kts 174°
2026-05-05 08:55 33.94309 -118.41228 95 ft 15 kts 171°
2026-05-05 08:55 33.94203 -118.41211 96 ft 16 kts 173°
2026-05-05 08:55 33.94097 -118.41196 98 ft 14 kts 173°
2026-05-05 08:56 33.94010 -118.41183 96 ft 11 kts 173°
2026-05-05 08:56 33.93937 -118.41172 96 ft 10 kts 173°
2026-05-05 08:56 33.93874 -118.41163 96 ft 8 kts 173°
2026-05-05 08:56 33.93819 -118.41156 98 ft 7 kts 174°
2026-05-05 08:57 33.93780 -118.41142 100 ft 4 kts 146°
2026-05-05 08:57 33.93767 -118.41121 101 ft 3 kts 120°
2026-05-05 08:57 33.93767 -118.41092 102 ft 6 kts 94°
2026-05-05 08:57 33.93774 -118.41020 101 ft 12 kts 82°
2026-05-05 08:58 33.93786 -118.40902 102 ft 16 kts 83°
2026-05-05 08:58 33.93800 -118.40767 102 ft 17 kts 82°
2026-05-05 08:58 33.93813 -118.40626 103 ft 18 kts 86°
2026-05-05 08:58 33.93829 -118.40480 103 ft 16 kts 82°
2026-05-05 08:59 33.93842 -118.40358 104 ft 13 kts 82°
2026-05-05 08:59 33.93853 -118.40247 104 ft 14 kts 83°
2026-05-05 08:59 33.93866 -118.40126 104 ft 14 kts 84°
2026-05-05 08:59 33.93878 -118.40006 104 ft 15 kts 83°
2026-05-05 09:00 33.93890 -118.39882 104 ft 15 kts 84°
2026-05-05 09:00 33.93902 -118.39752 103 ft 17 kts 83°
2026-05-05 09:00 33.93917 -118.39606 103 ft 18 kts 82°
2026-05-05 09:00 33.93933 -118.39460 102 ft 18 kts 83°
2026-05-05 09:01 33.93948 -118.39312 101 ft 18 kts 82°
2026-05-05 09:01 33.93964 -118.39162 101 ft 18 kts 83°
2026-05-05 09:01 33.93979 -118.39017 102 ft 17 kts 84°
2026-05-05 09:01 33.93993 -118.38876 102 ft 17 kts 83°
2026-05-05 09:02 33.94008 -118.38737 102 ft 16 kts 84°
2026-05-05 09:02 33.94021 -118.38604 103 ft 16 kts 83°
2026-05-05 09:02 33.94035 -118.38478 103 ft 15 kts 82°
2026-05-05 09:02 33.94045 -118.38371 103 ft 12 kts 88°
2026-05-05 09:03 33.94006 -118.38326 108 ft 5 kts 168°
2026-05-05 09:03 33.93985 -118.38322 109 ft 3 kts 173°
2026-05-05 09:03 33.93955 -118.38329 109 ft 5 kts 231°
2026-05-05 09:03 33.93947 -118.38396 110 ft 18 kts 264°
2026-05-05 09:04 33.93902 -118.38847 107 ft 89 kts 262°
2026-05-05 09:04 33.93802 -118.39831 111 ft 146 kts 263°
2026-05-05 09:04 33.93656 -118.41220 277 ft 179 kts 264°
2026-05-05 09:04 33.93486 -118.42715 979 ft 180 kts 262°
2026-05-05 09:05 33.93319 -118.44203 1772 ft 177 kts 263°
2026-05-05 09:05 33.93139 -118.45639 2377 ft 175 kts 255°
2026-05-05 09:05 33.92482 -118.46972 2518 ft 198 kts 231°
2026-05-05 09:05 33.91595 -118.48281 2780 ft 210 kts 232°
2026-05-05 09:06 33.90627 -118.49714 2893 ft 233 kts 231°
2026-05-05 09:06 33.89538 -118.51278 3123 ft 254 kts 230°
2026-05-05 09:06 33.88385 -118.52906 3865 ft 252 kts 231°
2026-05-05 09:06 33.87237 -118.54511 4537 ft 259 kts 226°
2026-05-05 09:07 33.85751 -118.55733 5183 ft 264 kts 200°
2026-05-05 09:07 33.83915 -118.55939 5840 ft 270 kts 172°
2026-05-05 09:07 33.82072 -118.55449 6530 ft 272 kts 169°
2026-05-05 09:07 33.80220 -118.54933 7171 ft 275 kts 169°
2026-05-05 09:08 33.78339 -118.54415 7801 ft 278 kts 169°
2026-05-05 09:08 33.76439 -118.53899 8427 ft 282 kts 169°
2026-05-05 09:08 33.74513 -118.53379 9042 ft 286 kts 169°
2026-05-05 09:08 33.72562 -118.52809 9673 ft 291 kts 163°
2026-05-05 09:09 33.70757 -118.51680 10232 ft 298 kts 144°
2026-05-05 09:09 33.69285 -118.49886 10582 ft 313 kts 126°
2026-05-05 09:09 33.68335 -118.47447 10715 ft 334 kts 103°
2026-05-05 09:09 33.68162 -118.44604 10850 ft 353 kts 89°
2026-05-05 09:10 33.68231 -118.41578 10997 ft 370 kts 88°
2026-05-05 09:10 33.68322 -118.38461 11389 ft 378 kts 88°
2026-05-05 09:10 33.68422 -118.35296 11919 ft 382 kts 88°
2026-05-05 09:10 33.68520 -118.32101 12482 ft 385 kts 88°
2026-05-05 09:11 33.68615 -118.28867 13050 ft 388 kts 89°
2026-05-05 09:11 33.68704 -118.25614 13609 ft 392 kts 89°
2026-05-05 09:11 33.68787 -118.22331 14124 ft 396 kts 89°
2026-05-05 09:11 33.68869 -118.19009 14626 ft 399 kts 89°
2026-05-05 09:12 33.68951 -118.15672 15126 ft 403 kts 89°
2026-05-05 09:12 33.69032 -118.12278 15477 ft 408 kts 89°
2026-05-05 09:12 33.69112 -118.08911 16058 ft 409 kts 89°
2026-05-05 09:12 33.69193 -118.05494 16594 ft 411 kts 90°
2026-05-05 09:13 33.69274 -118.02052 17094 ft 414 kts 90°
2026-05-05 09:13 33.69353 -117.98573 17650 ft 417 kts 90°
2026-05-05 09:13 33.69431 -117.95079 18138 ft 421 kts 90°
2026-05-05 09:13 33.69509 -117.91559 18592 ft 424 kts 90°
2026-05-05 09:14 33.69592 -117.88002 19034 ft 426 kts 90°
2026-05-05 09:14 33.69676 -117.84437 19470 ft 429 kts 90°
2026-05-05 09:14 33.69758 -117.80851 19903 ft 431 kts 90°
2026-05-05 09:14 33.69839 -117.77234 20337 ft 434 kts 90°
2026-05-05 09:15 33.69916 -117.73608 20755 ft 436 kts 90°
2026-05-05 09:15 33.69993 -117.69963 21175 ft 438 kts 90°
2026-05-05 09:15 33.70068 -117.66285 21592 ft 441 kts 91°
2026-05-05 09:15 33.70144 -117.62600 21982 ft 443 kts 91°
2026-05-05 09:16 33.70220 -117.58895 22376 ft 446 kts 91°
2026-05-05 09:16 33.70296 -117.55157 22773 ft 448 kts 91°
2026-05-05 09:16 33.70371 -117.51413 23185 ft 450 kts 91°
2026-05-05 09:16 33.70442 -117.47650 23559 ft 453 kts 91°
2026-05-05 09:17 33.70512 -117.43853 23844 ft 455 kts 91°
2026-05-05 09:17 33.70580 -117.40042 24116 ft 459 kts 91°
2026-05-05 09:17 33.70647 -117.36204 24374 ft 462 kts 92°
2026-05-05 09:17 33.70714 -117.32323 24637 ft 465 kts 92°
2026-05-05 09:18 33.70783 -117.28428 24895 ft 469 kts 92°
2026-05-05 09:18 33.70854 -117.24505 25148 ft 472 kts 92°
2026-05-05 09:18 33.70923 -117.20541 25425 ft 475 kts 92°
2026-05-05 09:18 33.70993 -117.16563 25673 ft 479 kts 93°
2026-05-05 09:19 33.71061 -117.12558 25918 ft 482 kts 93°
2026-05-05 09:19 33.71126 -117.08568 26155 ft 485 kts 93°
2026-05-05 09:19 33.71191 -117.04510 26376 ft 488 kts 94°
2026-05-05 09:19 33.71253 -117.00425 26595 ft 491 kts 94°
2026-05-05 09:20 33.71314 -116.96300 26812 ft 495 kts 94°
2026-05-05 09:20 33.71374 -116.92163 27033 ft 497 kts 94°
2026-05-05 09:20 33.71435 -116.88001 27214 ft 501 kts 94°
2026-05-05 09:20 33.71498 -116.83798 27428 ft 504 kts 95°
2026-05-05 09:21 33.71560 -116.79582 27634 ft 507 kts 95°
2026-05-05 09:21 33.71617 -116.75341 27860 ft 510 kts 95°
2026-05-05 09:21 33.71671 -116.71071 28044 ft 514 kts 95°
2026-05-05 09:21 33.71727 -116.66768 28352 ft 515 kts 96°
2026-05-05 09:22 33.71781 -116.62465 28634 ft 517 kts 96°
2026-05-05 09:22 33.71835 -116.58146 28901 ft 519 kts 96°
2026-05-05 09:22 33.71888 -116.53801 29123 ft 520 kts 96°
2026-05-05 09:22 33.71939 -116.49452 29309 ft 523 kts 97°
2026-05-05 09:23 33.71987 -116.45064 29551 ft 525 kts 97°
2026-05-05 09:23 33.72031 -116.40673 29799 ft 528 kts 97°
2026-05-05 09:23 33.72073 -116.36258 30017 ft 530 kts 97°
2026-05-05 09:23 33.72117 -116.31831 30202 ft 531 kts 97°
2026-05-05 09:24 33.72161 -116.27393 30432 ft 533 kts 98°
2026-05-05 09:24 33.72189 -116.24445 30576 ft 533 kts 98°
2026-05-05 09:24 33.72230 -116.19980 30803 ft 534 kts 98°
2026-05-05 09:24 33.72324 -116.15516 31024 ft 540 kts 93°
2026-05-05 09:25 33.73214 -116.09563 31327 ft 555 kts 79°
2026-05-05 09:25 33.74080 -116.06591 31479 ft 561 kts 72°
2026-05-05 09:25 33.76556 -116.01112 31782 ft 569 kts 57°
2026-05-05 09:25 33.78182 -115.98552 31941 ft 571 kts 52°
2026-05-05 09:26 33.80682 -115.94830 32183 ft 571 kts 52°
2026-05-05 09:26 33.83165 -115.91111 32424 ft 571 kts 53°
2026-05-05 09:26 33.85639 -115.87383 32652 ft 571 kts 53°
2026-05-05 09:26 33.88083 -115.83683 32879 ft 571 kts 53°
2026-05-05 09:27 33.90549 -115.79943 33102 ft 571 kts 53°
2026-05-05 09:27 33.93014 -115.76202 33333 ft 571 kts 53°
2026-05-05 09:27 33.95487 -115.72447 33549 ft 571 kts 53°
2026-05-05 09:27 33.97953 -115.68702 33772 ft 571 kts 53°
2026-05-05 09:28 34.00421 -115.64956 33968 ft 571 kts 53°
2026-05-05 09:28 34.02898 -115.61198 34171 ft 571 kts 53°
2026-05-05 09:28 34.05366 -115.57455 34368 ft 571 kts 53°
2026-05-05 09:28 34.07831 -115.53711 34558 ft 570 kts 53°
2026-05-05 09:29 34.10298 -115.49952 34756 ft 570 kts 53°
2026-05-05 09:29 34.15213 -115.42440 34870 ft 571 kts 53°
2026-05-05 09:30 34.20144 -115.34894 34860 ft 572 kts 53°
2026-05-05 09:30 34.25043 -115.27391 34848 ft 572 kts 53°
2026-05-05 09:31 34.29998 -115.19790 34854 ft 572 kts 53°
2026-05-05 09:31 34.34923 -115.12216 34839 ft 572 kts 53°
2026-05-05 09:32 34.39838 -115.04625 34849 ft 573 kts 53°
2026-05-05 09:32 34.44721 -114.97091 34851 ft 573 kts 53°
2026-05-05 09:33 34.49637 -114.89476 34855 ft 573 kts 54°
2026-05-05 09:33 34.54539 -114.81862 34873 ft 573 kts 54°
2026-05-05 09:34 34.59447 -114.74224 34895 ft 574 kts 54°
2026-05-05 09:34 34.64355 -114.66582 34916 ft 574 kts 54°
2026-05-05 09:35 34.69254 -114.58949 34919 ft 573 kts 54°
2026-05-05 09:35 34.76500 -114.47380 34910 ft 572 kts 60°
2026-05-05 09:36 34.80350 -114.38963 34884 ft 569 kts 66°
2026-05-05 09:36 34.84099 -114.30474 34859 ft 569 kts 66°
2026-05-05 09:37 34.87839 -114.21988 34841 ft 569 kts 66°
2026-05-05 09:37 34.91553 -114.13537 34834 ft 569 kts 66°
2026-05-05 09:38 34.95288 -114.05020 34853 ft 569 kts 66°
2026-05-05 09:38 34.99013 -113.96507 34886 ft 570 kts 66°
2026-05-05 09:39 35.02738 -113.87971 34897 ft 570 kts 66°
2026-05-05 09:39 35.06459 -113.79425 34901 ft 570 kts 66°
2026-05-05 09:40 35.10168 -113.70881 34899 ft 570 kts 66°
2026-05-05 09:40 35.13877 -113.62312 34878 ft 570 kts 66°
2026-05-05 09:41 35.17581 -113.53729 34859 ft 571 kts 66°
2026-05-05 09:41 35.21279 -113.45149 34850 ft 571 kts 66°
2026-05-05 09:42 35.24980 -113.36547 34858 ft 571 kts 66°
2026-05-05 09:42 35.28662 -113.27944 34864 ft 571 kts 66°
2026-05-05 09:43 35.32318 -113.19368 34863 ft 571 kts 66°
2026-05-05 09:43 35.36022 -113.10692 34869 ft 572 kts 66°
2026-05-05 09:44 35.39679 -113.02108 34876 ft 572 kts 66°
2026-05-05 09:44 35.43352 -112.93456 34880 ft 572 kts 66°
2026-05-05 09:45 35.47013 -112.84812 34881 ft 572 kts 66°
2026-05-05 09:45 35.50670 -112.76146 34889 ft 571 kts 66°
2026-05-05 09:46 35.54313 -112.67475 34893 ft 571 kts 66°
2026-05-05 09:46 35.57948 -112.58815 34896 ft 571 kts 66°
2026-05-05 09:47 35.61587 -112.50140 34893 ft 571 kts 66°
2026-05-05 09:47 35.65207 -112.41453 34910 ft 570 kts 66°
2026-05-05 09:48 35.68810 -112.32777 34945 ft 570 kts 66°
2026-05-05 09:48 35.72402 -112.24147 34976 ft 570 kts 66°
2026-05-05 09:49 35.76011 -112.15453 35004 ft 570 kts 66°
2026-05-05 09:49 35.79603 -112.06766 35020 ft 570 kts 66°
2026-05-05 09:50 35.83191 -111.98057 35022 ft 570 kts 66°
2026-05-05 09:50 35.86764 -111.89339 34985 ft 569 kts 66°
2026-05-05 09:51 35.90334 -111.80640 34942 ft 569 kts 66°
2026-05-05 09:51 35.93909 -111.71924 34894 ft 569 kts 66°
2026-05-05 09:52 35.97472 -111.63197 34858 ft 569 kts 66°
2026-05-05 09:52 36.01013 -111.54471 34861 ft 569 kts 66°
2026-05-05 09:53 36.04557 -111.45726 34853 ft 569 kts 66°
2026-05-05 09:53 36.08077 -111.37034 34854 ft 569 kts 66°
2026-05-05 09:54 36.11599 -111.28283 34854 ft 569 kts 67°
2026-05-05 09:54 36.14495 -111.19223 34855 ft 566 kts 73°
2026-05-05 09:55 36.17250 -111.10118 34857 ft 566 kts 73°
2026-05-05 09:55 36.20018 -111.00994 34857 ft 566 kts 73°
2026-05-05 09:56 36.22780 -110.91861 34856 ft 566 kts 73°
2026-05-05 09:56 36.25521 -110.82736 34851 ft 566 kts 73°
2026-05-05 09:57 36.28266 -110.73593 34851 ft 566 kts 73°
2026-05-05 09:57 36.30995 -110.64441 34851 ft 566 kts 73°
2026-05-05 09:58 36.33713 -110.55300 34852 ft 565 kts 72°
2026-05-05 09:58 36.36434 -110.46145 34847 ft 565 kts 72°
2026-05-05 09:59 36.39144 -110.36991 34843 ft 565 kts 72°
2026-05-05 09:59 36.41838 -110.27848 34846 ft 564 kts 72°
2026-05-05 10:00 36.44529 -110.18686 34848 ft 564 kts 72°
2026-05-05 10:00 36.47221 -110.09518 34841 ft 565 kts 72°
2026-05-05 10:01 36.49889 -110.00354 34845 ft 564 kts 73°
2026-05-05 10:01 36.52227 -109.91059 34844 ft 563 kts 78°
2026-05-05 10:02 36.54195 -109.81640 34838 ft 562 kts 79°
2026-05-05 10:02 36.56112 -109.72273 34841 ft 562 kts 78°
2026-05-05 10:03 36.58151 -109.62887 34843 ft 563 kts 77°
2026-05-05 10:03 36.60251 -109.53506 34844 ft 562 kts 77°
2026-05-05 10:04 36.62326 -109.44120 34844 ft 562 kts 78°
2026-05-05 10:04 36.64355 -109.34744 34841 ft 561 kts 78°
2026-05-05 10:05 36.66372 -109.25354 34838 ft 561 kts 78°
2026-05-05 10:05 36.68387 -109.15969 34834 ft 560 kts 78°
2026-05-05 10:06 36.70402 -109.06600 34832 ft 560 kts 78°
2026-05-05 10:06 36.72404 -108.97203 34823 ft 561 kts 78°
2026-05-05 10:07 36.74400 -108.87805 34813 ft 562 kts 78°
2026-05-05 10:07 36.76399 -108.78374 34811 ft 563 kts 78°
2026-05-05 10:08 36.78394 -108.68928 34816 ft 563 kts 78°
2026-05-05 10:08 36.80374 -108.59486 34862 ft 563 kts 78°
2026-05-05 10:09 36.82347 -108.50025 34907 ft 563 kts 77°
2026-05-05 10:09 36.84302 -108.40625 34947 ft 563 kts 77°
2026-05-05 10:10 36.86261 -108.31176 34972 ft 563 kts 77°
2026-05-05 10:10 36.88216 -108.21710 34974 ft 562 kts 77°
2026-05-05 10:11 36.90162 -108.12246 34949 ft 562 kts 77°
2026-05-05 10:11 36.92087 -108.02796 34924 ft 562 kts 77°
2026-05-05 10:12 36.94011 -107.93334 34924 ft 561 kts 77°
2026-05-05 10:12 36.95931 -107.83874 34959 ft 561 kts 77°
2026-05-05 10:13 36.97841 -107.74429 34967 ft 561 kts 77°
2026-05-05 10:13 36.99745 -107.64970 34967 ft 560 kts 77°
2026-05-05 10:14 37.01632 -107.55506 34948 ft 560 kts 77°
2026-05-05 10:14 37.03511 -107.46059 34916 ft 560 kts 77°
2026-05-05 10:15 37.05391 -107.36597 34879 ft 560 kts 77°
2026-05-05 10:15 37.07255 -107.27128 34921 ft 560 kts 77°
2026-05-05 10:16 37.09108 -107.17674 34962 ft 560 kts 77°
2026-05-05 10:16 37.10650 -107.09792 34991 ft 559 kts 77°
2026-05-05 10:17 37.12495 -107.00335 35003 ft 559 kts 77°
2026-05-05 10:17 37.14336 -106.90858 34989 ft 559 kts 77°
2026-05-05 10:18 37.16165 -106.81395 34968 ft 559 kts 77°
2026-05-05 10:18 37.17982 -106.71919 34928 ft 558 kts 77°
2026-05-05 10:19 37.19784 -106.62455 34893 ft 557 kts 77°
2026-05-05 10:19 37.21584 -106.53022 34888 ft 556 kts 76°
2026-05-05 10:20 37.22179 -106.49897 34888 ft 556 kts 76°